                ,  0.937,  1.134,  1.331,  1.528,  1.725,  1.922,  2.119,  2.316,  2.513,  2.711,  2.908,  3.105,  3.302,  3.499,  3.696,  3.893,  4.090,  4.287,  4.484,  4.681,  4.878,  5.076,  5.273,  5.470,  5.667,  5.864,  6.061,  6.258,  6.455,  6.652,  6.849,  7.046,  7.243,  7.441,  7.638,  7.835,  8.032,  8.229,  8.426,  8.623,  8.820,  9.017,  9.214,  9.411,  9.608,  9.806
2000/04/21 00:00,  999.0,  999.0,  999.0,  999.0,  999.0,  999.0,  999.0,  999.0,  999.0,  999.0,  999.0,  999.0,  999.0,  999.0,  999.0,  999.0,  999.0,  999.0,  999.0,  999.0,  999.0,  999.0,  999.0,  999.0,  999.0,  999.0,  999.0,  999.0,  999.0,  999.0,  999.0,  999.0,  999.0,  999.0,  999.0,  999.0,  999.0,  999.0,  999.0,  999.0,  999.0,  999.0,  999.0,  999.0,  999.0,  999.0
2000/04/21 00:10,  999.0,  999.0,  -16.9,  -15.5,  -14.7,  -11.1,   -5.4,  999.0,  999.0,  999.0,   10.2,  999.0,   11.1,  999.0,  999.0,  999.0,   16.1,   15.1,  999.0,   17.0,  999.0,  999.0,  999.0,  999.0,  999.0,  999.0,  999.0,  999.0,  999.0,  999.0,  999.0,  999.0,  999.0,  999.0,  999.0,  999.0,  999.0,  999.0,  999.0,  999.0,  999.0,  999.0,  999.0,  999.0,  999.0,  999.0
2000/04/21 00:20,  999.0,  -15.1,  -17.5,  -15.8,  -14.5,   -9.7,   -5.6,    2.1,  999.0,   13.1,   11.7,   13.5,  999.0,  999.0,  999.0,   14.9,   16.0,   13.5,   11.2,  999.0,  999.0,  999.0,  999.0,  999.0,  999.0,  999.0,  999.0,  999.0,  999.0,  999.0,  999.0,  999.0,  999.0,  999.0,  999.0,  999.0,  999.0,  999.0,  999.0,  999.0,  999.0,  999.0,  999.0,  999.0,  999.0,  999.0
2000/04/21 00:30,  999.0,  999.0,  999.0,  -15.9,  -13.3,   -8.6,   -1.2,    1.6,  999.0,  999.0,  999.0,  999.0,  999.0,  999.0,   16.5,   15.5,  999.0,  999.0,  999.0,  999.0,  999.0,  999.0,  999.0,  999.0,  999.0,  999.0,  999.0,  999.0,  999.0,  999.0,  999.0,  999.0,  999.0,  999.0,  999.0,  999.0,  999.0,  999.0,  999.0,  999.0,  999.0,  999.0,  999.0,  999.0,  999.0,  999.0
2000/04/21 00:40,  999.0,  999.0,  -17.8,  -13.9,  -11.7,   -8.9,  999.0,    5.9,    7.8,  999.0,    9.0,   13.9,  999.0,  999.0,   16.3,   17.1,   15.1,   19.1,   16.9,   16.3,  999.0,  999.0,  999.0,  999.0,  999.0,  999.0,  999.0,  999.0,  999.0,  999.0,  999.0,  999.0,  999.0,  999.0,  999.0,  999.0,  999.0,  999.0,  999.0,  999.0,  999.0,  999.0,  999.0,  999.0,  999.0,  999.0
2000/04/21 00:50,  999.0,  999.0,  -16.7,  -14.6,  -12.4,  999.0,  999.0,  999.0,  999.0,  999.0,   11.6,   11.7,   13.0,  999.0,  999.0,   17.2,   13.5,  999.0,   17.2,  999.0,  999.0,  999.0,  999.0,  999.0,  999.0,  999.0,  999.0,  999.0,  999.0,  999.0,  999.0,  999.0,  999.0,  999.0,  999.0,  999.0,  999.0,  999.0,  999.0,  999.0,  999.0,  999.0,  999.0,  999.0,  999.0,  999.0
2000/04/21 01:00,  999.0,  999.0,  -17.5,  -13.4,  -11.3,   -8.7,   -1.5,  999.0,  999.0,   14.4,  999.0,  999.0,  999.0,   15.1,   15.3,   15.2,   15.3,  999.0,  999.0,  999.0,  999.0,  999.0,  999.0,  999.0,  999.0,  999.0,  999.0,  999.0,  999.0,  999.0,  999.0,  999.0,  999.0,  999.0,  999.0,  999.0,  999.0,  999.0,  999.0,  999.0,  999.0,  999.0,  999.0,  999.0,  999.0,  999.0
2000/04/21 01:10,  999.0,  -20.5,  999.0,  -13.9,  -11.3,   -7.2,   -0.7,    4.3,  999.0,  999.0,   13.7,  999.0,   15.1,   18.2,   14.9,   16.9,   14.8,  999.0,  999.0,  999.0,  999.0,  999.0,  999.0,  999.0,  999.0,  999.0,  999.0,  999.0,  999.0,  999.0,  999.0,  999.0,  999.0,  999.0,  999.0,  999.0,  999.0,  999.0,  999.0,  999.0,  999.0,  999.0,  999.0,  999.0,  999.0,  999.0
2000/04/21 01:20,  999.0,  -15.8,  -15.2,  -12.9,  -10.0,   -6.9,   -1.6,  999.0,  999.0,  999.0,   12.0,  999.0,  999.0,  999.0,   14.6,   16.0,   13.4,  999.0,  999.0,  999.0,  999.0,  999.0,  999.0,  999.0,  999.0,  999.0,  999.0,  999.0,  999.0,  999.0,  999.0,  999.0,  999.0,  999.0,  999.0,  999.0,  999.0,  999.0,  999.0,  999.0,  999.0,  999.0,  999.0,  999.0,  999.0,  999.0
2000/04/21 01:30,  -11.6,  -15.8,  -14.7,  -11.6,   -8.9,   -6.4,   -0.9,    2.2,  999.0,   12.2,  999.0,   14.2,   13.4,   14.8,  999.0,   16.5,  999.0,  999.0,   13.1,  999.0,  999.0,  999.0,  999.0,  999.0,  999.0,  999.0,  999.0,  999.0,  999.0,  999.0,  999.0,  999.0,  999.0,  999.0,  999.0,  999.0,  999.0,  999.0,  999.0,  999.0,  999.0,  999.0,  999.0,  999.0,  999.0,  999.0
2000/04/21 01:40,  -12.7,  -16.5,  -14.8,  -11.9,   -8.3,   -4.6,   -0.6,  999.0,    7.4,  999.0,   15.1,  999.0,   15.2,   13.3,   13.9,   15.2,  999.0,   21.9,   10.5,  999.0,  999.0,  999.0,  999.0,  999.0,  999.0,  999.0,  999.0,  999.0,  999.0,  999.0,  999.0,  999.0,  999.0,  999.0,  999.0,  999.0,  999.0,  999.0,  999.0,  999.0,  999.0,  999.0,  999.0,  999.0,  999.0,  999.0
2000/04/21 01:50,  999.0,  -16.4,  -14.6,  -11.1,   -8.4,   -3.9,   -0.9,    5.4,  999.0,  999.0,  999.0,   14.2,   11.5,   13.3,   14.7,   16.4,   16.0,   17.6,    8.5,  999.0,  999.0,  999.0,  999.0,  999.0,  999.0,  999.0,  999.0,  999.0,  999.0,  999.0,  999.0,  999.0,  999.0,  999.0,  999.0,  999.0,  999.0,  999.0,  999.0,  999.0,  999.0,  999.0,  999.0,  999.0,  999.0,  999.0
2000/04/21 02:00,  999.0,  -16.6,  -14.8,   -9.0,   -7.4,  999.0,    1.7,  999.0,  999.0,   12.6,   13.3,   14.8,   13.3,  999.0,   13.5,   13.7,  999.0,  999.0,  999.0,  999.0,  999.0,  999.0,  999.0,  999.0,  999.0,  999.0,  999.0,  999.0,  999.0,  999.0,  999.0,  999.0,  999.0,  999.0,  999.0,  999.0,  999.0,  999.0,  999.0,  999.0,  999.0,  999.0,  999.0,  999.0,  999.0,  999.0
2000/04/21 02:10,  999.0,  -17.1,  -15.7,  -11.0,   -7.2,   -3.4,    1.8,    6.7,  999.0,  999.0,  999.0,  999.0,   14.0,   15.7,  999.0,   14.8,   12.8,   15.9,  999.0,  999.0,  999.0,  999.0,  999.0,  999.0,  999.0,  999.0,  999.0,  999.0,  999.0,  999.0,  999.0,  999.0,  999.0,  999.0,  999.0,  999.0,  999.0,  999.0,  999.0,  999.0,  999.0,  999.0,  999.0,  999.0,  999.0,  999.0
2000/04/21 02:20,  999.0,  -17.0,  -13.7,  -10.6,   -7.7,   -4.6,    4.2,    5.4,  999.0,  999.0,  999.0,   16.9,  999.0,   16.5,  999.0,   15.0,  999.0,  999.0,  999.0,  999.0,  999.0,  999.0,  999.0,  999.0,  999.0,  999.0,  999.0,  999.0,  999.0,  999.0,  999.0,  999.0,  999.0,  999.0,  999.0,  999.0,  999.0,  999.0,  999.0,  999.0,  999.0,  999.0,  999.0,  999.0,  999.0,  999.0
2000/04/21 02:30,  999.0,  -17.0,  -13.7,  -10.8,   -7.0,   -3.5,    2.3,    5.8,   13.5,  999.0,  999.0,   13.3,   16.4,  999.0,  999.0,   16.2,  999.0,   13.0,  999.0,  999.0,  999.0,  999.0,  999.0,  999.0,  999.0,  999.0,  999.0,  999.0,  999.0,  999.0,  999.0,  999.0,  999.0,  999.0,  999.0,  999.0,  999.0,  999.0,  999.0,  999.0,  999.0,  999.0,  999.0,   20.9,  999.0,   23.3
2000/04/21 02:40,  -13.5,  -17.5,  -14.2,  -10.5,   -7.9,   -2.6,    0.5,    7.7,    7.1,    4.7,  999.0,  999.0,   11.0,   12.9,  999.0,  999.0,  999.0,   14.5,  999.0,  999.0,  999.0,  999.0,  999.0,  999.0,  999.0,  999.0,  999.0,  999.0,  999.0,  999.0,  999.0,  999.0,  999.0,  999.0,  999.0,  999.0,  999.0,  999.0,  999.0,  999.0,  999.0,  999.0,   21.7,   22.9,   24.4,   23.8
2000/04/21 02:50,  999.0,  -15.5,  -14.2,  -10.9,   -7.3,   -4.1,    1.0,    9.1,    8.3,  999.0,  999.0,  999.0,  999.0,  999.0,  999.0,  999.0,  999.0,  999.0,  999.0,  999.0,  999.0,  999.0,  999.0,  999.0,  999.0,  999.0,  999.0,  999.0,  999.0,  999.0,  999.0,  999.0,  999.0,  999.0,  999.0,  999.0,  999.0,  999.0,  999.0,  999.0,  999.0,  999.0,  999.0,  999.0,  999.0,  999.0
2000/04/21 03:00,  999.0,  -16.5,  -13.6,  -10.0,   -6.7,   -3.8,   -0.3,    7.1,    7.4,  999.0,  999.0,  999.0,  999.0,  999.0,  999.0,   13.2,  999.0,  999.0,  999.0,   12.2,   13.3,  999.0,  999.0,  999.0,  999.0,  999.0,  999.0,  999.0,  999.0,  999.0,  999.0,  999.0,  999.0,  999.0,  999.0,  999.0,  999.0,  999.0,  999.0,  999.0,  999.0,  999.0,  999.0,  999.0,  999.0,  999.0
2000/04/21 03:10,  999.0,  -14.8,  -15.1,  -10.9,   -7.0,   -3.3,    2.4,    6.7,    7.1,  999.0,   17.4,  999.0,   14.1,  999.0,  999.0,  999.0,  999.0,    5.5,   11.6,   12.7,  999.0,  999.0,  999.0,  999.0,  999.0,  999.0,  999.0,  999.0,  999.0,  999.0,  999.0,  999.0,  999.0,  999.0,  999.0,  999.0,  999.0,  999.0,  999.0,  999.0,  999.0,  999.0,  999.0,   21.1,   22.8,   25.0
2000/04/21 03:20,  999.0,  -13.8,  -14.8,  -11.3,   -7.0,   -2.0,    1.5,    6.4,    6.4,   10.9,  999.0,  999.0,   16.9,  999.0,   15.1,  999.0,  999.0,   10.3,   11.3,   11.3,  999.0,  999.0,  999.0,  999.0,  999.0,  999.0,  999.0,  999.0,  999.0,  999.0,  999.0,  999.0,  999.0,  999.0,  999.0,  999.0,  999.0,  999.0,  999.0,  999.0,  999.0,   24.2,   22.9,   21.6,   24.3,  999.0
2000/04/21 03:30,  999.0,  -15.7,  -14.9,  -10.9,   -7.1,  999.0,  999.0,    6.3,    7.4,  999.0,  999.0,  999.0,  999.0,  999.0,  999.0,  999.0,    4.8,  999.0,    8.4,    9.2,   11.5,  999.0,  999.0,  999.0,  999.0,  999.0,  999.0,  999.0,  999.0,  999.0,  999.0,  999.0,  999.0,  999.0,  999.0,  999.0,  999.0,  999.0,  999.0,  999.0,   23.6,   23.3,  999.0,   23.4,   26.9,   28.2
2000/04/21 03:40,  999.0,  -14.1,  -15.0,  -10.7,   -7.2,  999.0,    2.6,    7.0,  999.0,  999.0,  999.0,  999.0,  999.0,  999.0,    7.1,  999.0,  999.0,  999.0,    6.7,    7.6,  999.0,   11.4,  999.0,  999.0,  999.0,  999.0,  999.0,  999.0,  999.0,  999.0,  999.0,  999.0,  999.0,  999.0,  999.0,  999.0,  999.0,   22.6,   22.5,   22.5,   22.6,   22.1,   22.5,   25.0,   26.2,   28.2
2000/04/21 03:50,  999.0,  -15.8,  -13.1,  -10.6,   -6.4,  999.0,  999.0,    6.8,    8.1,  999.0,  999.0,  999.0,  999.0,  999.0,  999.0,  999.0,  999.0,  999.0,  999.0,    7.1,  999.0,  999.0,  999.0,  999.0,  999.0,  999.0,  999.0,  999.0,  999.0,  999.0,  999.0,  999.0,  999.0,  999.0,  999.0,  999.0,  999.0,   23.9,   22.7,   22.8,   21.6,   21.1,   22.5,   25.0,   26.8,   28.5
2000/04/21 04:00,  999.0,  -16.2,  -15.3,  -10.9,   -6.8,   -1.4,    2.7,    6.0,  999.0,  999.0,  999.0,  999.0,  999.0,  999.0,  999.0,  999.0,  999.0,  999.0,  999.0,  999.0,  999.0,  999.0,  999.0,  999.0,  999.0,  999.0,  999.0,  999.0,  999.0,  999.0,  999.0,  999.0,  999.0,  999.0,  999.0,  999.0,  999.0,   23.7,   22.5,   22.3,   20.5,   20.5,   23.0,   26.3,   28.0,   28.6
2000/04/21 04:10,  999.0,  -14.4,  -13.5,  -10.7,   -7.0,   -2.2,    1.8,    6.3,  999.0,  999.0,  999.0,  999.0,  999.0,  999.0,  999.0,  999.0,  999.0,    7.9,    6.7,    7.9,  999.0,  999.0,  999.0,  999.0,  999.0,  999.0,  999.0,  999.0,   17.6,   18.9,  999.0,  999.0,  999.0,  999.0,  999.0,   24.8,  999.0,   24.7,   24.8,   24.5,   24.2,   24.5,   27.3,   28.8,  999.0,  999.0
2000/04/21 04:20,  999.0,  -14.0,  -13.0,  -10.6,   -6.7,   -1.9,    2.3,    6.6,    7.7,  999.0,  999.0,  999.0,  999.0,  999.0,  999.0,  999.0,  999.0,    7.0,  999.0,    7.9,    9.0,  999.0,  999.0,  999.0,  999.0,  999.0,  999.0,  999.0,   16.8,   17.8,  999.0,  999.0,  999.0,  999.0,  999.0,  999.0,  999.0,  999.0,  999.0,  999.0,  999.0,  999.0,  999.0,  999.0,  999.0,  999.0
2000/04/21 04:30,  999.0,  -14.3,  -12.5,  -11.1,   -7.1,   -2.5,    1.4,  999.0,    6.5,  999.0,  999.0,  999.0,  999.0,  999.0,  999.0,  999.0,    6.6,    7.4,  999.0,  999.0,  999.0,  999.0,  999.0,  999.0,  999.0,  999.0,  999.0,  999.0,  999.0,   17.1,   19.3,  999.0,  999.0,  999.0,  999.0,  999.0,  999.0,  999.0,  999.0,  999.0,  999.0,   29.1,   30.5,   30.6,   31.7,   34.2
2000/04/21 04:40,  999.0,  -13.2,  -13.2,  -11.0,   -7.2,   -2.8,  999.0,    4.4,  999.0,  999.0,  999.0,  999.0,  999.0,  999.0,  999.0,    4.6,    6.5,  999.0,    7.2,  999.0,    9.9,  999.0,  999.0,  999.0,  999.0,  999.0,  999.0,  999.0,  999.0,  999.0,   18.2,   22.3,  999.0,  999.0,  999.0,  999.0,  999.0,   23.5,   24.0,   25.5,   26.2,   27.5,   28.7,   30.1,   32.2,   34.0
2000/04/21 04:50,  999.0,  -11.6,  -13.1,   -9.6,   -6.1,   -2.0,  999.0,    4.4,  999.0,  999.0,  999.0,  999.0,  999.0,  999.0,  999.0,  999.0,    7.7,  999.0,  999.0,  999.0,  999.0,  999.0,  999.0,  999.0,  999.0,  999.0,  999.0,  999.0,  999.0,  999.0,  999.0,   21.8,  999.0,  999.0,  999.0,   23.5,   23.8,   24.1,   24.3,   26.2,   27.3,   28.3,   28.8,   29.6,   32.0,   34.2
2000/04/21 05:00,  999.0,  -13.5,  -12.0,   -9.1,   -6.7,   -1.8,    0.9,    4.0,  999.0,    6.5,  999.0,  999.0,  999.0,  999.0,  999.0,    5.0,    7.1,  999.0,  999.0,  999.0,  999.0,  999.0,  999.0,  999.0,  999.0,  999.0,  999.0,  999.0,  999.0,  999.0,  999.0,  999.0,   21.2,  999.0,   23.4,   24.0,   24.0,   23.9,   25.4,   27.7,   28.9,   30.1,   30.1,   31.3,   33.2,   34.6
2000/04/21 05:10,  999.0,  -12.8,  -11.5,   -9.2,   -5.7,  999.0,    0.6,    4.2,  999.0,    6.3,  999.0,  999.0,  999.0,  999.0,  999.0,  999.0,  999.0,  999.0,  999.0,  999.0,  999.0,  999.0,  999.0,  999.0,  999.0,  999.0,  999.0,  999.0,  999.0,  999.0,  999.0,  999.0,  999.0,   21.9,   22.2,   22.9,   24.3,   23.9,  999.0,   29.1,   29.8,  999.0,  999.0,  999.0,  999.0,  999.0
2000/04/21 05:20,  999.0,  -11.9,  -10.0,   -8.2,  999.0,  999.0,  999.0,  999.0,  999.0,  999.0,  999.0,  999.0,  999.0,  999.0,  999.0,  999.0,  999.0,  999.0,  999.0,  999.0,  999.0,  999.0,  999.0,  999.0,  999.0,  999.0,  999.0,  999.0,  999.0,  999.0,  999.0,  999.0,   20.5,   20.5,   21.1,   23.2,   24.8,   24.3,   25.7,   28.1,   29.6,   31.6,   33.0,   35.0,   35.8,   36.7
2000/04/21 05:30,  999.0,  -11.9,  -10.3,   -7.5,   -5.3,   -2.8,  999.0,  999.0,  999.0,  999.0,  999.0,  999.0,  999.0,  999.0,  999.0,    4.5,  999.0,    7.4,  999.0,  999.0,  999.0,  999.0,  999.0,  999.0,  999.0,  999.0,  999.0,  999.0,  999.0,  999.0,  999.0,  999.0,   19.3,   19.1,   21.1,   23.7,   24.6,   24.4,   26.0,   28.4,   29.4,   31.1,   32.0,   34.1,   35.5,   36.4
2000/04/21 05:40,  999.0,  -12.5,  -10.1,   -7.1,   -5.2,  999.0,    3.0,    6.7,    6.8,  999.0,  999.0,  999.0,  999.0,  999.0,  999.0,  999.0,    7.4,  999.0,  999.0,  999.0,  999.0,  999.0,  999.0,  999.0,  999.0,  999.0,  999.0,  999.0,  999.0,   15.3,   15.5,   16.4,   18.5,   20.4,   22.0,   23.3,   24.2,   24.8,   29.1,   30.9,   31.2,   32.3,   33.5,   34.9,   36.5,   37.6
2000/04/21 05:50,  999.0,  -12.5,   -9.7,   -7.0,   -5.2,  999.0,    5.7,    5.9,    5.7,  999.0,  999.0,  999.0,  999.0,  999.0,  999.0,    6.5,  999.0,  999.0,  999.0,  999.0,  999.0,  999.0,  999.0,  999.0,  999.0,   12.1,   13.3,   13.4,   13.2,   13.6,   13.7,   15.0,   18.7,   20.3,   20.7,   20.7,   22.3,   24.6,   29.3,   32.3,   31.2,   31.5,   33.1,   35.2,   35.4,  999.0
2000/04/21 06:00,  999.0,  -12.9,  -10.5,   -7.8,   -5.4,   -1.3,  999.0,  999.0,  999.0,    6.5,  999.0,  999.0,  999.0,  999.0,  999.0,  999.0,  999.0,  999.0,  999.0,  999.0,  999.0,  999.0,  999.0,  999.0,   11.0,   10.7,   11.3,   13.0,   12.9,   12.4,   13.3,   16.2,   19.4,   20.9,   21.2,   22.2,   25.2,   28.2,   31.7,   31.2,   30.6,   31.8,   33.4,   35.6,  999.0,  999.0
2000/04/21 06:10,  999.0,  -12.9,  -11.5,   -8.5,   -5.7,   -2.0,    1.5,    5.4,    5.0,    7.5,  999.0,  999.0,  999.0,  999.0,  999.0,  999.0,  999.0,    8.5,  999.0,  999.0,  999.0,  999.0,   11.7,    9.1,   10.4,   13.3,   11.9,   11.4,   10.6,   11.5,   15.4,   17.4,   20.2,   21.2,   21.4,   22.3,   26.6,   30.4,   30.2,   29.0,   30.8,  999.0,  999.0,  999.0,  999.0,  999.0
2000/04/21 06:20,  999.0,  -13.0,  -11.8,   -8.7,   -6.1,   -2.1,    1.0,    3.2,    4.2,    7.7,  999.0,  999.0,  999.0,  999.0,  999.0,  999.0,  999.0,  999.0,  999.0,   11.7,    9.1,   11.1,   11.6,   11.5,   12.6,   12.2,   12.0,   11.7,   11.5,   12.2,   15.5,   18.9,   21.3,   21.2,   22.1,   24.2,   29.0,   29.8,   28.4,   28.9,   30.7,   32.2,   32.8,   34.1,   34.6,  999.0
2000/04/21 06:30,  999.0,  -13.1,  -10.4,   -7.6,   -3.5,  999.0,  999.0,    3.9,    4.2,    8.2,  999.0,  999.0,  999.0,  999.0,  999.0,  999.0,  999.0,  999.0,  999.0,  999.0,  999.0,    8.5,   12.0,   13.5,   12.3,   11.8,   11.6,   11.5,   11.0,   11.4,   15.6,   19.5,   21.7,   22.2,   23.3,   26.1,   29.6,   31.2,   29.5,   28.0,   29.6,   31.9,   33.1,   33.7,   33.9,  999.0
2000/04/21 06:40,  999.0,  -13.3,  -10.4,   -7.2,   -3.9,  999.0,  999.0,    2.4,  999.0,  999.0,  999.0,  999.0,  999.0,  999.0,  999.0,  999.0,  999.0,  999.0,  999.0,  999.0,   11.4,    9.3,   12.1,   15.4,   12.1,   11.2,   10.4,   10.5,    9.7,   10.9,   17.0,   21.5,   22.1,   22.5,   23.7,   26.4,   29.3,   30.8,   28.3,   28.0,   29.8,   31.7,   32.8,   33.3,   34.6,  999.0
2000/04/21 06:50,  999.0,  -12.6,   -9.8,   -7.2,   -5.9,   -1.4,    1.6,    3.7,  999.0,  999.0,  999.0,  999.0,  999.0,  999.0,  999.0,  999.0,    7.7,    9.3,   10.1,   12.1,   11.0,  999.0,  999.0,    9.1,    9.5,   10.7,    9.3,    8.3,    8.8,   10.9,   17.1,   21.2,   21.8,   22.9,   24.6,   27.2,   29.4,   30.4,   27.9,   27.3,   29.3,   31.7,   32.2,   32.5,   32.8,   33.7
2000/04/21 07:00,  999.0,  -12.7,  999.0,   -6.6,   -4.5,   -2.1,    1.7,    5.7,  999.0,  999.0,  999.0,  999.0,  999.0,  999.0,  999.0,    6.1,    7.5,    7.5,   10.3,   13.4,   10.1,   10.2,   11.3,    8.6,   10.0,    9.8,    8.8,    8.9,    9.2,   11.6,   19.7,   22.2,   22.7,   23.9,   25.0,   27.0,   29.2,   30.0,   27.9,   26.4,   26.6,   28.6,   30.3,   30.9,   31.9,   33.2
2000/04/21 07:10,  999.0,  999.0,   -9.7,   -7.3,   -6.2,  999.0,    4.1,    4.2,    5.3,  999.0,  999.0,  999.0,  999.0,  999.0,  999.0,    6.3,    6.9,    5.5,    6.5,    6.5,    8.1,    9.3,    9.3,    8.7,    9.9,   11.2,   10.6,   10.5,   10.6,   15.8,   23.3,   23.7,   24.3,   25.3,   27.1,   29.7,   31.1,   30.1,   28.1,   28.4,   28.7,   29.7,   30.9,   31.5,   32.8,   33.8
2000/04/21 07:20,  999.0,  -11.5,   -9.8,   -7.6,   -5.0,   -1.9,    1.2,    3.1,    3.9,  999.0,  999.0,  999.0,  999.0,  999.0,  999.0,  999.0,    8.1,    9.3,    8.4,   11.4,   11.8,    4.8,    7.6,   12.3,   11.9,   11.1,   10.1,   10.2,   12.0,   20.9,   23.6,   24.3,   25.3,   27.1,   29.7,   30.5,   29.0,   28.6,   29.5,   31.9,   33.5,   33.0,   33.2,   33.9,   35.2,   35.6
2000/04/21 07:30,  999.0,  -10.9,   -8.8,   -6.7,   -6.7,  999.0,    1.0,    1.1,  999.0,  999.0,  999.0,  999.0,  999.0,  999.0,  999.0,  999.0,  999.0,    8.5,    8.1,    5.9,    4.2,    3.9,    2.4,    5.6,    7.8,   10.0,    9.9,   10.0,   12.8,   22.2,   23.3,   24.1,   25.8,   26.9,   29.0,   29.3,   28.7,   29.1,   30.2,   30.9,   31.3,   32.0,   32.0,   31.5,   32.1,   33.0
2000/04/21 07:40,  999.0,   -9.7,   -8.3,   -7.2,   -5.9,   -2.8,    1.8,    4.3,  999.0,    4.6,  999.0,  999.0,  999.0,  999.0,  999.0,  999.0,    7.7,    6.9,    7.1,    7.8,    6.4,    4.9,   -0.8,   -1.4,  999.0,    6.3,    7.8,    8.6,   14.8,   23.2,   24.3,   25.9,   26.6,   28.0,   28.2,   29.0,   30.7,   31.8,   32.1,   31.7,   31.0,   30.5,   30.8,   30.8,   31.1,   31.6
2000/04/21 07:50,  999.0,   -9.8,   -8.8,   -7.9,  999.0,  999.0,   -0.8,    4.4,  999.0,    5.1,  999.0,  999.0,  999.0,  999.0,  999.0,  999.0,    7.6,    6.1,    8.4,    6.4,    9.0,    8.5,    8.4,    9.2,    9.9,    6.4,    7.0,    9.0,   16.9,   22.5,   23.4,   24.7,   26.6,   28.9,   28.3,   30.6,  999.0,  999.0,  999.0,  999.0,  999.0,   31.2,   31.3,   30.5,   30.9,   30.1
2000/04/21 08:00,  999.0,  -10.0,   -8.0,   -6.8,  999.0,   -4.2,   -1.0,    2.4,  999.0,  999.0,  999.0,  999.0,  999.0,  999.0,  999.0,  999.0,    6.1,    7.4,    6.8,    9.0,    5.8,    4.5,  999.0,  999.0,  999.0,    8.9,    6.6,    8.9,   17.9,   23.0,   22.7,   24.3,   27.1,   27.8,   28.5,   29.8,   29.1,   30.2,   28.8,   28.5,   28.6,   29.6,   30.1,   31.0,   29.7,   28.8
2000/04/21 08:10,  999.0,   -9.8,   -7.6,   -6.8,  999.0,   -4.7,   -0.3,    3.2,    4.4,    5.3,    4.8,  999.0,  999.0,  999.0,  999.0,  999.0,    7.6,   10.1,   10.5,    7.5,    7.0,    3.7,    3.0,    6.5,    4.7,    6.3,    7.1,    9.9,   18.4,   22.9,   23.5,   25.1,   27.5,   28.2,   29.6,   30.1,   29.8,   29.6,   29.0,   28.5,   28.5,   28.5,   28.6,   28.7,   29.1,   28.8
2000/04/21 08:20,  999.0,  -10.1,   -7.7,   -7.2,   -5.9,   -3.5,    0.8,    4.4,  999.0,  999.0,    3.8,  999.0,  999.0,  999.0,  999.0,  999.0,    9.1,   10.2,    9.3,    8.5,    6.8,    3.5,    3.1,    7.9,    6.1,    6.4,    6.5,    9.0,   18.4,   22.8,   23.5,   25.2,   27.4,   28.2,   29.6,   29.8,   29.8,   29.3,   29.3,   29.9,   30.0,   30.0,   29.9,   29.3,   28.9,   30.3
2000/04/21 08:30,  999.0,   -9.3,   -7.9,   -6.5,   -6.8,   -4.5,    0.3,    2.5,    2.5,  999.0,    3.6,  999.0,  999.0,  999.0,  999.0,  999.0,  999.0,    6.6,    8.4,    6.4,    7.2,    3.4,    6.7,    8.6,    9.1,    7.5,    6.1,    9.2,   18.8,   22.6,   23.6,   25.8,   27.9,   28.8,   29.7,   30.0,   30.3,   29.4,   29.5,   29.5,   29.0,  999.0,  999.0,  999.0,  999.0,  999.0
2000/04/21 08:40,  999.0,  999.0,   -7.6,   -7.0,   -7.1,   -4.6,  999.0,  999.0,    3.6,  999.0,    2.6,  999.0,  999.0,  999.0,  999.0,  999.0,  999.0,    8.1,    8.1,    9.4,   16.8,   10.7,    7.6,    5.5,    5.6,    6.6,    5.8,    9.8,   20.4,   22.8,   25.0,   27.4,   29.3,   30.3,  999.0,  999.0,  999.0,  999.0,   28.8,  999.0,  999.0,  999.0,  999.0,  999.0,  999.0,  999.0
2000/04/21 08:50,  999.0,  -10.0,   -8.5,   -7.1,   -6.6,   -5.3,   -4.1,    1.1,    3.7,    2.4,  999.0,  999.0,  999.0,  999.0,  999.0,    9.5,    9.2,    7.9,    6.7,    6.9,    2.8,    4.3,    6.9,    8.2,    7.2,    6.4,    7.1,   11.3,   21.3,   24.3,   26.5,   29.3,   30.2,   31.4,   31.2,  999.0,  999.0,  999.0,  999.0,  999.0,  999.0,  999.0,  999.0,  999.0,  999.0,  999.0
2000/04/21 09:00,  999.0,  -11.2,   -8.3,   -6.9,   -6.3,   -5.2,   -3.9,   -0.2,    1.9,  999.0,  999.0,  999.0,  999.0,  999.0,    7.8,    9.6,    8.4,    7.5,    6.4,    7.8,    7.2,    6.8,    6.8,    7.1,    6.3,    6.0,    7.6,   13.5,   23.3,   26.8,   28.3,   29.8,   30.0,   30.0,  999.0,  999.0,  999.0,  999.0,  999.0,  999.0,  999.0,  999.0,  999.0,  999.0,  999.0,  999.0
2000/04/21 09:10,  999.0,  -10.6,   -7.6,   -7.1,   -6.4,   -4.0,   -2.7,    0.3,    0.5,    0.9,    2.3,    2.3,  999.0,  999.0,    7.6,    8.7,    7.7,    8.0,    6.8,    6.6,    7.0,    7.7,    7.3,    8.3,    8.8,    8.4,    9.4,   17.3,   26.8,   29.4,   31.0,  999.0,  999.0,  999.0,  999.0,  999.0,  999.0,  999.0,  999.0,  999.0,  999.0,  999.0,  999.0,  999.0,  999.0,  999.0
2000/04/21 09:20,  999.0,   -9.0,   -6.9,   -6.3,   -5.7,   -4.0,   -2.6,    2.5,    2.1,  999.0,    2.8,  999.0,    1.4,  999.0,    5.7,    8.8,    9.9,    9.8,    8.7,    8.7,    8.4,    7.9,    8.5,    8.1,    8.2,    8.4,    8.6,   17.2,   25.4,   28.9,   30.2,   30.6,   30.1,   29.6,   30.2,  999.0,  999.0,  999.0,  999.0,  999.0,  999.0,  999.0,  999.0,  999.0,  999.0,  999.0
2000/04/21 09:30,  999.0,   -7.2,   -6.4,   -5.9,   -5.3,  999.0,  999.0,    0.9,  999.0,  999.0,  999.0,  999.0,  999.0,  999.0,  999.0,    7.9,   10.4,   10.3,    8.2,    8.5,    7.7,    8.1,    7.8,    7.1,    5.3,    6.5,    7.9,   17.6,   25.3,   27.0,   27.8,   28.8,   29.4,   30.3,   31.2,   32.4,  999.0,  999.0,  999.0,  999.0,  999.0,  999.0,  999.0,  999.0,  999.0,  999.0
2000/04/21 09:40,  999.0,   -7.1,   -6.5,   -5.4,   -4.8,   -4.6,  999.0,  999.0,  999.0,  999.0,    3.4,    1.8,  999.0,  999.0,    3.5,  999.0,   11.4,   11.5,   10.0,    9.6,    9.2,    7.7,    9.2,  999.0,  999.0,    5.3,    8.4,   17.8,   25.6,   26.9,   26.4,   26.5,   27.7,   28.5,   31.9,  999.0,  999.0,  999.0,  999.0,  999.0,  999.0,  999.0,  999.0,  999.0,  999.0,  999.0
2000/04/21 09:50,  999.0,   -8.6,   -7.1,   -5.6,   -5.0,   -3.1,   -2.4,  999.0,  999.0,   -0.6,  999.0,    1.9,    0.4,  999.0,  999.0,   11.3,   12.1,   11.9,    9.0,    8.5,    7.6,    8.3,   11.2,    6.5,    6.4,    7.4,   12.3,   20.4,   27.1,   27.9,   27.8,   26.3,   26.0,  999.0,  999.0,  999.0,  999.0,  999.0,  999.0,  999.0,  999.0,  999.0,  999.0,  999.0,  999.0,  999.0
2000/04/21 10:00,  999.0,   -6.0,   -7.4,   -6.1,   -5.6,   -3.5,   -2.2,   -0.7,    0.9,  999.0,  999.0,    3.0,  999.0,  999.0,  999.0,    9.5,   10.7,   11.0,   10.9,   10.4,  999.0,    6.4,    7.0,    6.4,    5.7,    6.2,   13.4,   22.3,   25.4,   26.6,   26.6,   26.4,   26.5,   27.7,   28.1,   29.2,   30.0,   30.1,   30.0,   30.5,   30.1,  999.0,   30.4,   30.4,  999.0,   31.5
2000/04/21 10:10,  999.0,   -8.7,   -7.6,   -7.0,   -5.9,   -4.8,   -3.2,  999.0,   -1.9,   -0.7,  999.0,    1.5,    4.4,  999.0,    6.8,    9.9,   11.0,    9.5,    8.3,    8.7,    6.4,  999.0,    4.0,    4.6,    4.4,    8.9,   18.3,   24.2,   26.3,   26.8,   26.7,   26.9,   26.3,   25.4,   25.4,   25.5,   25.9,   26.8,   27.1,   28.2,   29.0,   29.5,   30.1,   30.8,   30.7,   32.7
2000/04/21 10:20,  999.0,   -7.9,   -7.6,   -6.0,   -5.4,   -3.6,   -3.1,   -1.0,   -0.4,    2.1,  999.0,    2.3,    5.3,  999.0,    7.2,    6.6,    7.5,   -2.9,    0.2,    2.0,    4.1,    4.0,    3.4,    4.5,    7.3,   15.5,   23.4,   26.4,   27.0,   26.7,   26.8,   26.4,   26.4,   25.9,   25.5,   25.5,   25.7,   26.1,   26.3,   27.0,   27.7,   28.5,   28.9,   29.5,   29.1,   28.8
2000/04/21 10:30,  999.0,   -8.2,   -7.5,   -6.0,   -5.5,   -4.9,   -2.6,   -3.6,   -1.4,    3.4,    1.9,  999.0,    8.4,    6.3,    9.5,   14.2,   18.1,    9.0,   10.9,    8.3,    4.9,    5.2,    7.8,   10.9,   17.6,   23.4,   25.5,   26.6,   27.6,   28.7,   28.4,   27.9,   27.7,   28.3,   28.2,   26.7,   26.1,   26.4,   27.5,   28.2,   28.5,   28.4,   28.5,  999.0,  999.0,  999.0
2000/04/21 10:40,   -7.2,  -10.0,   -9.4,   -7.6,   -6.2,   -6.0,   -4.2,   -5.0,   -1.9,    0.2,    7.5,    7.5,   12.4,    9.8,   10.0,    7.6,    5.8,    3.8,    4.1,    4.3,    5.5,    7.8,   13.3,   18.7,   22.5,   26.0,   26.3,   26.3,   27.1,   27.4,   27.0,   27.7,   27.1,   27.9,   28.0,   28.1,   27.9,   27.9,   27.9,   28.9,   29.1,  999.0,  999.0,   25.9,  999.0,  999.0
2000/04/21 10:50,  999.0,   -9.1,   -9.4,   -9.7,   -7.3,   -6.0,   -4.7,   -5.5,   -4.3,   -1.1,    2.0,    5.5,  999.0,    5.7,    7.3,    9.8,    9.3,    9.4,    6.8,    4.6,    8.1,    9.4,   14.9,   20.0,   23.4,   26.5,   26.8,   26.4,   26.3,   26.4,   26.8,   27.3,   27.2,   27.6,   28.9,   29.3,   28.7,   27.9,   27.3,   27.5,   29.0,  999.0,   28.9,   30.5,   31.3,  999.0
2000/04/21 11:00,   -8.1,  -10.2,   -9.4,   -7.5,   -4.4,   -5.0,   -4.9,   -5.4,   -3.8,    1.8,    5.9,    7.8,    8.4,    7.8,    9.6,    9.8,   11.5,    8.2,    5.3,    3.6,    2.9,    7.0,   14.8,   20.8,   25.2,   25.1,   25.3,   25.2,   25.3,   26.2,   26.4,   27.1,   27.1,   27.2,   27.7,   28.3,   28.5,   28.4,   28.6,   28.8,   29.1,   29.2,   29.4,   28.8,   28.9,   29.8
2000/04/21 11:10,   -7.0,  -11.3,   -9.3,   -7.2,   -7.5,   -5.9,   -5.1,   -3.2,    0.4,    4.4,    8.1,    9.4,    7.4,    7.2,    8.3,    6.2,    9.9,    6.8,    4.8,    4.0,    3.6,   13.2,   19.3,   24.1,   26.5,   25.3,   24.4,   24.4,   24.4,   25.1,   26.5,   27.6,   27.4,   28.2,   28.6,   28.6,   29.3,   29.9,   30.0,   30.1,   30.0,   29.3,   28.6,   28.6,   28.5,  999.0
2000/04/21 11:20,   -6.5,   -8.9,   -9.5,   -7.6,   -6.8,   -6.5,   -5.5,   -7.1,    0.5,    4.9,    5.5,    5.6,    5.1,    5.2,    7.2,    3.8,    3.8,    4.3,    3.7,    4.3,   10.2,   18.1,   21.7,   25.6,   26.9,   24.5,   24.6,   25.2,   25.6,   25.9,   25.9,   26.2,   27.7,   28.8,   29.8,  999.0,  999.0,  999.0,  999.0,  999.0,  999.0,  999.0,  999.0,  999.0,  999.0,  999.0
2000/04/21 11:30,   -5.9,  -10.3,  -10.7,  -10.3,   -8.0,   -7.4,   -6.5,  999.0,    2.5,    8.3,    6.4,    4.5,   -0.3,    6.8,    8.4,    7.0,    4.7,    4.2,    3.9,    8.5,   14.1,   19.6,   23.0,   25.3,   25.2,   23.8,   23.6,   24.3,   25.6,   25.9,   27.0,   27.5,   27.8,   28.1,   28.2,   30.0,  999.0,  999.0,  999.0,  999.0,  999.0,  999.0,  999.0,  999.0,  999.0,  999.0
2000/04/21 11:40,   -9.1,  -13.0,  -10.7,   -9.7,   -9.5,   -7.8,   -6.9,   -5.7,   -0.7,    5.2,    6.6,    5.9,    1.2,    1.2,    7.1,    6.7,    6.6,    5.8,    4.9,    8.9,   17.8,   23.5,   25.7,   24.8,   25.1,   24.8,   26.2,   27.4,   27.9,   27.5,   28.4,   28.0,  999.0,  999.0,  999.0,  999.0,  999.0,  999.0,  999.0,  999.0,  999.0,  999.0,  999.0,  999.0,  999.0,  999.0
2000/04/21 11:50,  -10.0,  -11.6,  -10.9,   -9.4,   -8.0,   -7.1,   -4.1,  999.0,  999.0,    6.1,    5.3,    3.0,    2.3,  999.0,    4.6,    3.6,    3.2,    3.2,    5.6,   11.5,   18.1,   23.0,   23.1,   22.7,   22.9,   23.8,   25.8,   27.0,   27.5,   28.0,   28.5,   27.0,   25.9,  999.0,  999.0,   27.2,  999.0,  999.0,   25.8,  999.0,   25.4,   26.8,   26.4,   28.6,   26.2,  999.0
2000/04/21 12:00,  999.0,  -13.3,  -11.9,  -10.6,   -9.5,   -7.2,   -4.0,   -0.5,    7.3,  999.0,    5.8,   -0.6,    3.9,    5.4,    4.0,    3.1,    5.0,    6.4,   11.9,   16.9,   19.0,   22.4,   23.3,   23.1,   22.6,   24.6,   26.7,   27.5,   28.3,   28.6,   28.1,  999.0,  999.0,  999.0,  999.0,  999.0,  999.0,  999.0,  999.0,  999.0,  999.0,   28.3,  999.0,  999.0,  999.0,  999.0
2000/04/21 12:10,  999.0,  -12.7,  -12.0,  -10.1,   -8.3,   -7.8,   -6.3,   -5.2,  999.0,    1.3,    2.1,    2.1,    2.1,    3.7,    4.6,    5.2,    5.0,    6.0,    9.8,   16.8,   21.3,   23.3,   23.9,   23.7,   23.0,   24.8,   26.6,   28.5,   28.4,   28.1,   28.2,  999.0,   27.9,  999.0,  999.0,  999.0,  999.0,  999.0,  999.0,  999.0,  999.0,   26.9,  999.0,  999.0,  999.0,  999.0
2000/04/21 12:20,  999.0,  -12.3,  -10.3,   -8.8,   -8.0,   -7.1,   -6.4,   -3.9,   -2.4,    4.0,    4.9,    3.3,  999.0,    6.6,    6.7,  999.0,    5.1,    5.6,   10.4,   16.6,   21.6,   23.8,   23.2,   23.6,   22.8,   23.8,   26.0,   27.4,   26.9,   27.0,   27.4,   27.2,   27.2,   26.9,  999.0,  999.0,  999.0,  999.0,  999.0,  999.0,  999.0,  999.0,   26.1,  999.0,  999.0,  999.0
2000/04/21 12:30,  -10.5,  -12.9,  -10.3,   -9.2,   -8.6,   -7.5,   -6.0,   -3.3,    2.1,    4.1,    4.9,    4.6,    2.8,  999.0,    3.3,    4.2,    4.5,    4.6,    7.7,   14.9,   20.5,   22.1,   22.6,   22.1,   21.4,   22.3,   24.0,   25.2,   26.3,   26.2,   26.5,   27.5,   27.4,  999.0,  999.0,  999.0,  999.0,  999.0,  999.0,  999.0,  999.0,   25.9,   27.3,   27.9,   28.6,  999.0
2000/04/21 12:40,  -11.5,  -13.0,  -10.2,   -8.2,   -7.9,   -6.0,   -5.7,   -3.2,    2.3,    3.3,    4.0,    4.5,    2.7,    3.7,    4.2,    4.7,    4.3,    4.2,    9.6,   14.9,   19.7,   21.8,   22.0,   21.7,   22.2,   23.4,   24.8,   25.4,   25.8,   26.5,   27.1,   27.2,   28.5,  999.0,  999.0,  999.0,  999.0,  999.0,  999.0,  999.0,  999.0,   28.4,   28.0,   28.5,   28.9,  999.0
2000/04/21 12:50,  999.0,  -11.5,   -9.1,   -8.0,   -6.8,   -4.8,   -2.9,   -1.1,    3.0,    3.0,    3.5,    2.2,    3.6,  999.0,    3.7,    5.0,    5.6,    8.5,   12.8,   16.2,   20.9,   21.8,   22.2,   22.3,   22.8,   24.9,   26.1,   26.0,   25.7,   26.6,   26.1,   27.2,  999.0,  999.0,  999.0,  999.0,  999.0,  999.0,  999.0,  999.0,  999.0,  999.0,   29.2,   30.2,   31.6,   33.6
2000/04/21 13:00,  999.0,  -11.6,   -9.7,   -7.9,   -6.5,   -4.2,   -1.9,    0.7,    4.1,    5.5,    6.2,    5.1,    4.1,    3.5,    4.5,    5.2,    6.2,    8.8,   15.3,   19.5,   21.2,   21.6,   22.4,   24.2,   25.8,   26.4,   26.1,   25.1,   25.2,   25.5,   25.6,   25.8,  999.0,  999.0,  999.0,  999.0,  999.0,  999.0,  999.0,  999.0,  999.0,   31.2,   30.9,   31.5,   31.9,   34.3
2000/04/21 13:10,  999.0,  999.0,  999.0,   -8.6,   -6.6,   -5.1,   -2.6,    0.1,    2.8,    5.8,    7.0,    3.9,  999.0,    2.4,    4.4,    5.8,    7.4,   11.5,   16.1,   20.2,   20.7,   21.8,   23.9,   25.5,   26.0,   26.5,   26.0,   26.2,   25.2,   24.7,   25.3,  999.0,  999.0,  999.0,  999.0,  999.0,  999.0,  999.0,  999.0,  999.0,  999.0,  999.0,  999.0,  999.0,  999.0,  999.0
2000/04/21 13:20,  -10.4,  -13.5,  -10.6,   -9.1,   -5.4,   -4.0,   -3.2,   -1.3,    2.8,    4.2,    5.2,    3.1,    2.8,    2.8,    3.2,    5.6,    9.2,   13.2,   18.8,   20.0,   21.2,   22.6,   24.3,   25.7,   26.2,   26.6,   26.2,   25.2,   24.8,   25.0,   26.5,  999.0,  999.0,  999.0,  999.0,  999.0,  999.0,  999.0,  999.0,  999.0,  999.0,  999.0,  999.0,   34.1,   35.3,   37.8
2000/04/21 13:30,  -11.0,  -13.5,  -13.2,  -10.8,   -8.8,   -6.4,   -4.2,   -4.2,   -3.2,    0.2,  999.0,    2.7,    3.0,    3.1,    3.7,    5.7,   12.2,   17.5,   19.5,   20.3,   22.9,   23.6,   24.6,   25.6,   26.6,   26.3,   25.6,   25.0,   24.9,   24.7,  999.0,  999.0,  999.0,  999.0,  999.0,  999.0,  999.0,  999.0,  999.0,  999.0,   31.6,   33.3,   34.6,   35.5,   37.3,   39.9
2000/04/21 13:40,  -12.6,  -15.0,  -15.3,  -11.0,   -9.7,   -7.1,   -4.6,   -3.1,    1.5,    3.6,    5.0,    4.5,    4.3,    4.5,    4.4,    6.1,   13.3,   18.7,   19.4,   21.7,   23.7,   25.0,   25.1,   26.7,   27.9,   27.6,   25.7,   24.2,   24.1,   25.7,  999.0,  999.0,  999.0,  999.0,  999.0,  999.0,  999.0,  999.0,  999.0,  999.0,   32.3,   35.3,   36.2,   37.2,   38.7,  999.0
2000/04/21 13:50,   -8.9,  -11.9,  -13.5,  -12.9,   -9.9,   -8.5,   -5.5,   -3.6,   -0.3,    2.3,    2.9,    3.3,    3.9,    4.0,    3.2,    3.9,   11.5,   18.2,   19.3,   21.4,   23.4,   24.0,   25.1,   25.7,   25.2,   25.3,   25.6,   26.8,   28.0,  999.0,  999.0,  999.0,  999.0,  999.0,  999.0,  999.0,  999.0,  999.0,  999.0,  999.0,  999.0,   34.3,   35.9,   38.8,  999.0,  999.0
2000/04/21 14:00,   -9.2,  -11.2,  -14.5,  -13.5,  -10.9,   -8.8,   -7.0,   -5.1,   -2.6,    0.4,    3.0,    4.4,    4.0,    4.5,    3.5,    5.3,   12.8,   17.7,   20.9,   23.2,   25.0,   25.8,   26.3,   26.3,   26.8,   26.7,   26.1,   25.2,   26.6,  999.0,  999.0,  999.0,  999.0,  999.0,  999.0,  999.0,  999.0,  999.0,  999.0,  999.0,  999.0,  999.0,  999.0,  999.0,  999.0,  999.0
2000/04/21 14:10,   -8.5,  -12.6,  -14.6,  -12.6,  -10.8,   -6.2,   -5.4,   -5.7,   -3.1,    0.1,    4.8,  999.0,    3.3,    3.4,    3.4,    6.5,   13.8,   18.3,   21.6,   24.9,   26.6,   27.1,   27.5,   27.2,   27.4,  999.0,  999.0,   24.7,  999.0,  999.0,  999.0,  999.0,  999.0,  999.0,  999.0,  999.0,  999.0,  999.0,  999.0,  999.0,  999.0,  999.0,  999.0,  999.0,  999.0,  999.0
2000/04/21 14:20,  -10.9,  -14.1,  -14.6,  -28.7,  -13.1,  -10.6,   -9.5,   -4.1,    0.8,    2.9,  999.0,    5.0,    4.5,    4.0,    3.0,    7.9,   14.3,   17.1,   20.6,   23.9,   25.9,   26.9,   25.8,  999.0,   25.9,   26.5,  999.0,   26.0,  999.0,  999.0,  999.0,  999.0,  999.0,  999.0,  999.0,  999.0,  999.0,  999.0,  999.0,  999.0,  999.0,  999.0,  999.0,  999.0,  999.0,  999.0
2000/04/21 14:30,  -12.7,  -13.6,  -14.5,  -12.4,  -10.5,   -9.7,   -7.1,   -3.5,    0.9,    4.5,    5.3,    5.2,    6.2,    4.3,    3.7,    7.1,   14.4,   16.8,   19.3,   21.6,   24.1,   24.6,   24.4,   26.8,   25.7,   27.5,   27.4,   26.5,   26.3,  999.0,  999.0,  999.0,  999.0,  999.0,  999.0,  999.0,  999.0,  999.0,  999.0,  999.0,  999.0,  999.0,  999.0,  999.0,  999.0,  999.0
2000/04/21 14:40,  -13.9,  -14.1,  -14.9,  -12.7,  -10.9,   -9.2,   -7.3,   -3.9,    1.0,    4.3,    6.4,    4.7,    4.8,    4.0,    5.2,    7.6,   14.0,   17.7,   17.3,   20.6,   23.6,   25.1,   24.2,  999.0,   25.6,  999.0,   25.1,  999.0,   25.3,   25.8,  999.0,  999.0,  999.0,  999.0,  999.0,  999.0,  999.0,  999.0,  999.0,  999.0,  999.0,  999.0,  999.0,  999.0,  999.0,  999.0
2000/04/21 14:50,  -11.7,  -11.1,  -14.5,  -12.2,  -10.5,   -8.4,  999.0,  -12.4,  999.0,    2.1,    5.0,    4.3,    4.0,    4.8,    5.7,   10.3,   15.7,   18.5,   20.4,   23.3,   24.1,   26.5,   27.2,   25.3,   26.0,   25.3,   25.8,   27.6,  999.0,  999.0,  999.0,  999.0,  999.0,  999.0,  999.0,  999.0,  999.0,  999.0,  999.0,  999.0,  999.0,  999.0,  999.0,  999.0,  999.0,  999.0
2000/04/21 15:00,  -11.7,  -11.4,  999.0,  -11.4,  -10.4,   -8.5,   -8.3,   -7.8,   -3.9,   -0.1,    4.1,    3.8,    4.4,    3.8,    4.8,   12.8,   16.7,   17.9,   21.5,   23.6,   24.6,   25.0,   26.0,   25.4,   25.7,   27.5,  999.0,   27.9,  999.0,  999.0,  999.0,  999.0,  999.0,  999.0,  999.0,  999.0,  999.0,  999.0,  999.0,  999.0,  999.0,  999.0,  999.0,  999.0,  999.0,  999.0
2000/04/21 15:10,  -11.7,  -11.7,  -11.3,  -10.7,   -9.6,   -9.5,   -8.6,  999.0,    0.4,    1.8,    5.8,    5.5,    5.9,    5.0,    6.0,   10.8,   15.1,   16.6,   20.1,   22.1,   23.1,   23.4,   25.2,   27.5,   27.7,   28.9,  999.0,  999.0,  999.0,  999.0,  999.0,  999.0,  999.0,  999.0,  999.0,  999.0,  999.0,  999.0,  999.0,  999.0,  999.0,  999.0,  999.0,  999.0,  999.0,  999.0
2000/04/21 15:20,   -7.0,   -9.4,   -9.1,   -9.5,   -8.3,   -7.3,   -1.9,  999.0,    2.4,    6.4,    6.1,    6.7,    5.9,    5.3,    5.0,    9.5,   12.1,   16.8,   19.1,   21.9,   23.2,   23.5,   24.9,   25.3,   25.9,   28.3,   30.1,  999.0,   29.8,  999.0,   30.4,  999.0,  999.0,  999.0,  999.0,  999.0,  999.0,  999.0,  999.0,  999.0,  999.0,  999.0,  999.0,  999.0,  999.0,  999.0
2000/04/21 15:30,   -7.5,   -7.1,   -9.2,   -9.7,   -8.8,   -7.4,   -4.3,   -0.9,    0.7,    3.4,    4.9,    5.9,    6.4,    4.7,    5.4,    9.4,   12.5,   15.2,   20.4,   21.3,   23.5,   24.5,   25.0,   25.9,  999.0,   27.3,   29.2,   29.4,   30.4,   31.2,   33.4,   35.0,  999.0,  999.0,  999.0,  999.0,  999.0,  999.0,  999.0,  999.0,  999.0,  999.0,  999.0,  999.0,  999.0,  999.0
2000/04/21 15:40,   -5.0,   -6.9,   -8.1,   -7.6,   -8.5,   -7.6,   -3.9,   -1.0,    2.2,    3.5,    5.9,    6.3,    5.8,    5.2,    6.5,    8.6,   13.0,   15.5,   19.0,   21.0,   23.3,   25.6,   27.0,   28.1,   29.5,   29.1,   28.3,   29.2,   32.1,  999.0,  999.0,   31.7,  999.0,  999.0,  999.0,  999.0,  999.0,  999.0,  999.0,  999.0,  999.0,  999.0,  999.0,  999.0,  999.0,  999.0
2000/04/21 15:50,   -5.4,   -6.1,   -6.1,   -8.0,   -8.4,   -6.4,   -3.8,   -0.4,    3.0,    4.0,    5.8,    6.6,    6.4,    5.7,    7.7,   10.7,   13.1,   15.7,   19.1,   21.5,   22.4,   24.3,   25.7,   26.4,   27.5,   28.7,   29.0,   30.4,   31.0,  999.0,  999.0,  999.0,  999.0,  999.0,  999.0,  999.0,  999.0,  999.0,  999.0,  999.0,  999.0,  999.0,  999.0,  999.0,  999.0,  999.0
2000/04/21 16:00,   -5.3,   -6.2,   -6.4,   -6.7,   -7.0,   -5.9,   -3.6,   -0.5,    2.3,    3.7,    6.4,    7.7,    8.0,    8.5,    9.5,   10.8,   13.0,   14.5,   15.8,   19.5,   21.4,   22.7,   24.4,   25.8,   27.3,  999.0,   29.4,   30.1,   31.6,  999.0,  999.0,  999.0,  999.0,  999.0,  999.0,  999.0,  999.0,  999.0,  999.0,  999.0,  999.0,  999.0,  999.0,  999.0,  999.0,  999.0
2000/04/21 16:10,   -5.1,   -5.2,   -4.9,   -4.6,   -4.7,   -4.9,   -1.8,    1.0,    2.5,    4.6,    5.4,    7.1,    8.6,   10.3,   10.6,   12.2,   13.2,   13.9,   15.4,   18.2,   20.5,   22.2,   22.4,   23.3,   25.5,   23.9,   25.4,   26.6,  999.0,  999.0,  999.0,  999.0,  999.0,  999.0,  999.0,  999.0,  999.0,  999.0,  999.0,  999.0,  999.0,  999.0,  999.0,  999.0,  999.0,  999.0
2000/04/21 16:20,   -5.2,   -6.3,   -5.3,   -4.5,   -5.6,   -4.2,   -0.3,    0.2,    1.4,    3.3,    4.5,    6.8,   10.3,   11.9,   12.5,   16.1,   17.0,   17.5,   19.0,   23.8,   23.9,   23.0,   24.1,   23.2,   23.3,   24.3,   25.8,  999.0,  999.0,  999.0,  999.0,  999.0,  999.0,  999.0,  999.0,  999.0,  999.0,  999.0,  999.0,  999.0,  999.0,  999.0,  999.0,  999.0,  999.0,  999.0
2000/04/21 16:30,   -4.9,   -5.4,   -6.4,   -5.9,   -4.6,   -1.5,    1.0,    2.8,    4.5,  999.0,    3.7,    7.9,   10.4,   12.1,   14.3,   15.7,   16.6,   17.4,   19.6,   22.8,   24.2,   23.7,   25.2,   24.6,   23.6,   23.8,   25.0,  999.0,  999.0,  999.0,  999.0,  999.0,  999.0,  999.0,  999.0,  999.0,  999.0,  999.0,  999.0,  999.0,  999.0,  999.0,  999.0,  999.0,  999.0,  999.0
2000/04/21 16:40,   -5.7,   -6.6,   -5.4,   -4.3,   -2.8,    0.2,    1.9,    3.7,    5.3,    5.8,    6.5,    9.1,   10.9,   12.2,   15.2,   18.0,   17.1,   16.4,   19.4,   22.6,   24.0,   23.7,   23.1,   23.9,   22.9,   23.5,   24.9,   26.9,  999.0,  999.0,  999.0,  999.0,  999.0,  999.0,  999.0,  999.0,  999.0,  999.0,  999.0,  999.0,  999.0,  999.0,  999.0,  999.0,  999.0,  999.0
2000/04/21 16:50,   -5.9,   -7.2,   -4.9,   -4.5,   -1.2,   -0.1,    0.2,    2.9,    6.3,    7.5,    9.9,   12.4,   12.9,   14.3,   15.6,   17.2,   17.5,   18.0,   20.6,   23.2,   23.2,   22.8,   22.3,   21.9,   22.1,   24.1,   25.2,  999.0,  999.0,  999.0,  999.0,  999.0,  999.0,  999.0,  999.0,  999.0,  999.0,  999.0,  999.0,  999.0,  999.0,  999.0,  999.0,  999.0,  999.0,  999.0
2000/04/21 17:00,   -4.5,   -4.0,   -3.5,   -2.7,   -1.2,    0.8,    2.7,    5.4,    6.2,    7.2,   10.6,   12.5,   13.3,   13.1,   13.9,   16.7,   17.7,   18.0,   19.8,   21.1,   22.2,   22.1,   22.2,   21.9,   22.1,   24.5,   27.3,  999.0,  999.0,  999.0,  999.0,  999.0,  999.0,  999.0,  999.0,  999.0,  999.0,  999.0,  999.0,  999.0,  999.0,  999.0,  999.0,  999.0,  999.0,  999.0
2000/04/21 17:10,   -5.1,   -3.9,   -3.8,   -2.6,   -0.8,    1.4,    4.1,    5.6,    6.2,    6.3,    8.9,   10.7,   12.4,   13.3,   13.9,   15.5,   17.7,   18.1,   20.1,   22.4,   22.9,   22.9,   22.9,   22.9,   23.6,   24.0,   25.3,   29.0,  999.0,  999.0,  999.0,  999.0,  999.0,  999.0,  999.0,  999.0,  999.0,  999.0,  999.0,  999.0,  999.0,  999.0,  999.0,  999.0,  999.0,  999.0
2000/04/21 17:20,   -3.4,   -2.8,   -2.5,   -1.5,    0.6,    3.7,    4.8,    4.7,    3.4,    3.3,    5.8,    8.5,   11.3,   15.2,   13.5,   15.3,  999.0,   15.2,   17.6,   18.3,   19.4,   18.9,   19.5,   20.2,   21.8,   23.2,   25.5,   29.6,  999.0,  999.0,  999.0,  999.0,  999.0,  999.0,  999.0,  999.0,  999.0,  999.0,  999.0,  999.0,  999.0,  999.0,  999.0,  999.0,  999.0,  999.0
2000/04/21 17:30,   -2.7,   -3.2,   -3.2,   -1.4,   -0.1,    1.6,    2.7,    4.2,    5.3,    4.9,    6.3,    7.0,    9.4,   11.8,   12.8,   15.1,   14.4,   14.6,   17.2,   19.6,   20.3,   21.1,   21.4,   21.4,   21.6,   22.8,   23.7,   26.3,  999.0,  999.0,  999.0,  999.0,  999.0,  999.0,  999.0,  999.0,  999.0,  999.0,  999.0,  999.0,  999.0,  999.0,  999.0,  999.0,  999.0,  999.0
2000/04/21 17:40,   -2.1,   -3.5,   -3.1,  999.0,    0.1,    1.6,    3.2,    4.3,    5.9,    5.4,    6.3,    8.0,    9.6,   10.6,  999.0,  999.0,   14.5,   15.7,   15.0,   16.9,   18.5,   20.1,   21.4,   20.8,   21.7,   22.5,   23.8,   26.2,   28.7,  999.0,  999.0,  999.0,  999.0,  999.0,  999.0,  999.0,  999.0,  999.0,  999.0,  999.0,  999.0,  999.0,  999.0,  999.0,  999.0,  999.0
2000/04/21 17:50,   -2.5,   -2.6,   -1.7,   -0.5,    0.3,    0.6,    1.3,    3.4,    5.3,    6.1,    5.6,    7.3,    8.9,    8.6,  999.0,  999.0,   14.3,   17.3,   17.9,   19.7,   20.2,   21.0,   21.3,   21.5,   21.2,   22.7,   23.5,   25.0,  999.0,  999.0,  999.0,  999.0,  999.0,  999.0,  999.0,  999.0,  999.0,  999.0,  999.0,  999.0,  999.0,  999.0,  999.0,  999.0,  999.0,  999.0
2000/04/21 18:00,   -2.6,   -1.7,   -0.6,   -0.6,    0.2,    2.3,    4.2,    6.4,    6.8,    7.4,    6.9,    9.1,  999.0,  999.0,  999.0,  999.0,   16.1,   17.3,   16.6,   18.1,   19.0,   20.2,   21.2,   22.0,   23.1,   23.4,   25.4,   26.3,  999.0,  999.0,  999.0,  999.0,  999.0,  999.0,  999.0,  999.0,  999.0,  999.0,  999.0,  999.0,  999.0,  999.0,  999.0,  999.0,  999.0,  999.0
2000/04/21 18:10,  999.0,   -2.5,  999.0,    1.1,  999.0,    1.6,    1.4,    4.7,  999.0,  999.0,    7.8,   11.0,   11.1,   11.9,   12.9,   14.5,   16.1,   17.1,   18.5,  999.0,   20.6,   21.7,   20.6,   20.3,   21.8,   23.3,   26.4,  999.0,  999.0,  999.0,  999.0,  999.0,  999.0,  999.0,  999.0,  999.0,  999.0,  999.0,  999.0,  999.0,  999.0,  999.0,  999.0,  999.0,  999.0,  999.0
2000/04/21 18:20,  999.0,  999.0,  999.0,  999.0,  999.0,  999.0,    5.2,    5.6,    6.1,    6.4,    8.1,    8.3,    9.3,   10.4,   11.1,   14.4,   15.8,   17.5,   19.0,   19.4,   21.0,   21.8,  999.0,   21.0,   21.1,   24.2,  999.0,  999.0,  999.0,  999.0,  999.0,  999.0,  999.0,  999.0,  999.0,  999.0,  999.0,  999.0,  999.0,  999.0,  999.0,  999.0,  999.0,  999.0,  999.0,  999.0
2000/04/21 18:30,  999.0,    0.7,    1.7,    2.7,    4.5,    5.3,    5.8,    6.4,    6.2,    6.1,    5.9,    6.9,    8.9,   10.0,   11.5,   12.6,   15.5,   14.9,   17.1,   17.2,   18.7,   20.9,  999.0,   19.8,   23.6,   25.6,  999.0,  999.0,  999.0,  999.0,  999.0,  999.0,  999.0,  999.0,  999.0,  999.0,  999.0,  999.0,  999.0,  999.0,  999.0,  999.0,  999.0,  999.0,  999.0,  999.0
2000/04/21 18:40,   -0.5,    1.5,    1.8,    3.9,    5.6,    5.6,    5.7,    6.5,    7.0,    6.6,    6.6,    7.9,    9.3,   10.0,   10.2,   12.0,   12.3,   14.9,   16.9,   17.5,   18.8,   19.9,   19.3,   20.3,   22.4,   24.5,  999.0,  999.0,  999.0,  999.0,  999.0,  999.0,  999.0,  999.0,  999.0,  999.0,  999.0,  999.0,  999.0,  999.0,  999.0,  999.0,  999.0,  999.0,  999.0,  999.0
2000/04/21 18:50,   -0.4,    0.8,    2.1,    4.7,    4.3,    4.6,    3.8,    5.0,    7.1,    5.7,    5.8,  999.0,    8.6,    9.4,    8.4,   10.6,   12.4,   14.7,   16.9,   18.1,   18.4,   18.9,   19.6,   20.8,   22.2,   25.1,  999.0,  999.0,  999.0,  999.0,  999.0,  999.0,  999.0,  999.0,  999.0,  999.0,  999.0,  999.0,  999.0,  999.0,  999.0,  999.0,  999.0,  999.0,  999.0,  999.0
2000/04/21 19:00,  999.0,    1.2,    2.6,    4.4,    4.8,    4.1,    4.1,    4.7,    5.4,    5.4,    6.3,    8.3,    9.2,   10.9,   11.4,   13.3,   14.6,   15.2,   16.4,   16.2,   18.8,   20.6,   20.5,   21.4,  999.0,  999.0,  999.0,  999.0,  999.0,  999.0,  999.0,  999.0,  999.0,  999.0,  999.0,  999.0,  999.0,  999.0,  999.0,  999.0,  999.0,  999.0,  999.0,  999.0,  999.0,  999.0
2000/04/21 19:10,    2.1,    2.9,    5.0,    4.7,    4.2,    5.1,    4.8,    4.5,    6.2,    7.1,    8.2,    8.6,    9.2,    9.5,   12.8,   11.8,   13.6,   14.7,   15.8,   17.6,  999.0,   20.3,   21.6,  999.0,  999.0,  999.0,  999.0,  999.0,  999.0,  999.0,  999.0,  999.0,  999.0,  999.0,  999.0,  999.0,  999.0,  999.0,  999.0,  999.0,  999.0,  999.0,  999.0,  999.0,  999.0,  999.0
2000/04/21 19:20,  999.0,    3.9,    5.3,  999.0,    7.7,  999.0,    7.7,    8.3,    8.8,    9.0,    7.2,    7.0,    8.1,    9.3,   11.5,   12.4,   14.6,   16.2,   18.2,   17.8,   18.7,   18.4,   19.7,   21.9,   24.1,   25.6,  999.0,  999.0,  999.0,  999.0,  999.0,  999.0,  999.0,  999.0,  999.0,  999.0,  999.0,  999.0,  999.0,  999.0,  999.0,  999.0,  999.0,  999.0,  999.0,  999.0
2000/04/21 19:30,    1.8,    4.1,    5.7,    6.7,    8.3,    7.5,    6.2,    6.4,    7.3,  999.0,    5.2,    5.6,    7.1,    8.2,   10.8,   10.5,   11.9,   14.2,   17.9,   20.0,   19.4,   20.1,   21.1,  999.0,  999.0,  999.0,  999.0,  999.0,  999.0,  999.0,  999.0,  999.0,  999.0,  999.0,  999.0,  999.0,  999.0,  999.0,  999.0,  999.0,  999.0,  999.0,  999.0,  999.0,  999.0,  999.0
2000/04/21 19:40,    2.6,    3.9,    5.4,    8.3,    7.7,    6.9,    5.1,    4.7,  999.0,  999.0,    5.8,    5.7,    6.5,    9.2,   10.0,   11.7,   12.3,   14.3,   17.6,   16.2,   17.0,   18.7,   19.5,   20.7,  999.0,  999.0,   23.5,   25.1,  999.0,  999.0,  999.0,  999.0,  999.0,  999.0,  999.0,  999.0,  999.0,  999.0,  999.0,  999.0,  999.0,  999.0,  999.0,  999.0,  999.0,  999.0
2000/04/21 19:50,    2.8,    3.6,    5.3,    7.4,    8.2,    9.2,    8.5,    9.8,    7.3,    7.3,    6.4,    6.0,    8.5,    8.9,   10.0,   13.0,   16.2,   15.6,   15.9,   15.6,   16.8,   19.2,   21.1,   22.9,   21.9,   22.4,   24.0,  999.0,  999.0,  999.0,  999.0,  999.0,  999.0,  999.0,  999.0,  999.0,  999.0,  999.0,  999.0,  999.0,  999.0,  999.0,  999.0,  999.0,  999.0,  999.0
2000/04/21 20:00,    5.5,    6.2,    8.0,    9.1,    9.8,   10.9,   10.4,   10.2,    8.0,    7.3,  999.0,    8.2,    8.7,    9.9,   11.3,   12.3,   13.0,   14.2,   15.2,   16.6,   16.0,   17.1,   17.6,   18.7,   20.6,   17.6,  999.0,  999.0,  999.0,  999.0,  999.0,  999.0,  999.0,  999.0,  999.0,  999.0,  999.0,  999.0,  999.0,  999.0,  999.0,  999.0,  999.0,  999.0,  999.0,  999.0
2000/04/21 20:10,    5.9,    7.8,    9.6,   10.2,   10.7,   10.4,   10.2,   10.2,    8.6,    9.6,   10.6,   11.7,   13.8,   14.7,   16.1,   15.9,   15.6,   15.4,   14.2,   15.1,   16.5,   18.2,   19.7,   21.5,  999.0,  999.0,    5.0,  999.0,  999.0,  999.0,  999.0,  999.0,  999.0,  999.0,  999.0,  999.0,  999.0,  999.0,  999.0,  999.0,  999.0,  999.0,  999.0,  999.0,  999.0,  999.0
2000/04/21 20:20,  999.0,   10.2,   10.2,    8.6,    8.1,    8.4,    9.1,    9.1,    9.5,   12.0,   12.5,   14.0,   15.7,   17.2,   17.5,   17.1,   16.5,  999.0,   15.1,   16.4,   17.1,   17.3,  999.0,  999.0,  999.0,  999.0,  999.0,  999.0,  999.0,  999.0,  999.0,  999.0,  999.0,  999.0,  999.0,  999.0,  999.0,  999.0,  999.0,  999.0,  999.0,  999.0,  999.0,  999.0,  999.0,  999.0
2000/04/21 20:30,    9.9,   10.8,    8.1,   12.6,   12.3,   11.9,   13.3,   14.2,   13.7,   14.3,   15.3,   16.8,   18.5,   19.6,   18.4,   17.3,   17.0,   16.3,   15.9,   16.5,   16.1,   17.1,   18.0,   20.2,  999.0,  999.0,   25.6,   28.5,  999.0,  999.0,  999.0,  999.0,  999.0,  999.0,  999.0,  999.0,  999.0,  999.0,  999.0,  999.0,  999.0,  999.0,  999.0,  999.0,  999.0,  999.0
2000/04/21 20:40,    9.1,   11.0,   12.0,   13.7,   13.6,   14.1,   14.6,   18.2,   18.0,   17.8,   18.1,   18.1,   18.2,   17.2,   17.0,   16.8,   15.9,   16.6,   16.6,   16.5,   16.9,   17.7,   18.9,   20.3,   20.8,   21.8,   25.1,   28.0,  999.0,  999.0,  999.0,  999.0,  999.0,  999.0,  999.0,  999.0,  999.0,  999.0,  999.0,  999.0,  999.0,  999.0,  999.0,  999.0,  999.0,  999.0
2000/04/21 20:50,    7.4,   10.4,   10.2,   11.8,   12.5,   13.9,   15.0,   15.6,   16.4,   17.3,   18.2,   18.2,   18.6,   17.7,   17.6,   17.6,   18.5,   18.4,   17.3,   17.2,   17.4,   16.7,   18.5,   18.3,   19.1,   21.5,   23.2,  999.0,  999.0,  999.0,  999.0,  999.0,  999.0,  999.0,  999.0,  999.0,  999.0,  999.0,  999.0,  999.0,  999.0,  999.0,  999.0,  999.0,  999.0,  999.0
2000/04/21 21:00,    9.4,   10.6,   12.0,  999.0,   12.7,   13.7,   14.9,   15.2,   15.5,   16.9,   18.0,   18.7,   18.1,   17.4,   16.5,   16.3,   16.5,   18.7,   17.4,  999.0,   15.2,   15.8,   16.4,   16.4,   18.4,   21.6,  999.0,  999.0,  999.0,  999.0,  999.0,  999.0,  999.0,  999.0,  999.0,  999.0,  999.0,  999.0,  999.0,  999.0,  999.0,  999.0,  999.0,  999.0,  999.0,  999.0
2000/04/21 21:10,    9.8,   14.8,   13.2,   13.0,   13.6,   14.1,   15.2,   15.1,   14.4,   15.0,   16.4,   17.3,   17.5,   17.1,   17.2,   16.4,   17.4,   18.5,   17.0,   16.7,   15.3,   16.0,   16.9,   18.3,   20.1,   22.0,  999.0,  999.0,  999.0,  999.0,  999.0,  999.0,  999.0,  999.0,  999.0,  999.0,  999.0,  999.0,  999.0,  999.0,  999.0,  999.0,  999.0,  999.0,  999.0,  999.0
2000/04/21 21:20,    8.0,   10.7,   13.0,   12.7,   13.0,   14.2,   12.6,   13.8,   13.2,   14.2,   14.3,   15.1,   15.2,   15.5,   15.6,   17.1,   16.7,   16.9,   16.4,   15.4,   17.4,   18.4,   19.2,   19.7,   20.9,   20.2,  999.0,  999.0,  999.0,  999.0,  999.0,  999.0,  999.0,  999.0,  999.0,  999.0,  999.0,  999.0,  999.0,  999.0,  999.0,  999.0,  999.0,  999.0,  999.0,  999.0
2000/04/21 21:30,    5.8,    9.8,   11.3,   12.7,   13.7,   13.7,   14.2,   14.2,   13.6,   13.1,   12.9,   12.5,   12.4,  999.0,  999.0,   16.5,   11.8,   15.8,   13.7,   14.5,   15.8,   15.7,   16.2,   17.1,   16.2,   17.4,   13.0,  999.0,  999.0,  999.0,  999.0,  999.0,  999.0,  999.0,  999.0,  999.0,  999.0,  999.0,  999.0,  999.0,  999.0,  999.0,  999.0,  999.0,  999.0,  999.0
2000/04/21 21:40,    2.8,    6.5,    8.5,   11.1,   12.4,   13.1,   13.1,   13.5,   13.4,   13.9,   13.4,   13.1,   13.2,   13.0,   12.7,   13.2,   13.5,   12.5,   13.4,   12.4,   13.7,   15.3,  999.0,  999.0,  999.0,  999.0,  999.0,  999.0,  999.0,  999.0,  999.0,  999.0,  999.0,  999.0,  999.0,  999.0,  999.0,  999.0,  999.0,  999.0,  999.0,  999.0,  999.0,  999.0,  999.0,  999.0
2000/04/21 21:50,    0.3,    3.1,    6.4,    9.2,   11.4,   13.0,   14.5,   14.2,   14.5,   14.4,   14.7,   13.8,   12.8,   12.6,   12.1,   11.8,   14.2,   13.8,   14.4,   14.1,   13.6,   15.7,   16.7,   17.8,   21.8,   21.9,  999.0,  999.0,  999.0,  999.0,  999.0,  999.0,  999.0,  999.0,  999.0,  999.0,  999.0,  999.0,  999.0,  999.0,  999.0,  999.0,  999.0,  999.0,  999.0,  999.0
2000/04/21 22:00,    4.2,    5.2,    5.0,    6.0,    6.7,    5.8,    8.0,  999.0,   11.5,   14.2,   13.3,   13.1,   13.0,   13.9,   14.3,   13.6,   14.4,   14.5,   14.0,   14.1,   15.7,   17.1,   15.7,   18.0,   22.1,  999.0,  999.0,  999.0,  999.0,  999.0,  999.0,  999.0,  999.0,  999.0,  999.0,  999.0,  999.0,  999.0,  999.0,  999.0,  999.0,  999.0,  999.0,  999.0,  999.0,  999.0
2000/04/21 22:10,   11.5,   12.2,   11.3,    9.3,    6.3,    7.3,    9.3,   12.3,   11.8,   12.9,   12.2,   11.8,   12.0,   13.0,   12.7,   13.0,   13.8,   13.9,   13.8,   14.8,   15.4,   15.2,   17.4,   19.4,   21.7,  999.0,  999.0,  999.0,  999.0,  999.0,  999.0,  999.0,  999.0,  999.0,  999.0,  999.0,  999.0,  999.0,  999.0,  999.0,  999.0,  999.0,  999.0,  999.0,  999.0,  999.0
2000/04/21 22:20,    9.3,   11.3,   11.7,   11.1,    8.1,    8.4,   11.6,   13.9,   12.9,   13.7,   13.2,   13.7,   14.6,   13.7,   13.7,   13.5,   13.4,   14.3,   15.1,   17.0,   16.7,   16.4,   17.6,   17.1,   20.5,  999.0,  999.0,  999.0,  999.0,   31.1,  999.0,  999.0,  999.0,  999.0,  999.0,  999.0,  999.0,  999.0,  999.0,  999.0,  999.0,  999.0,  999.0,  999.0,  999.0,  999.0
2000/04/21 22:30,   10.3,   11.6,   14.5,   12.1,    8.6,    8.8,   14.0,   14.9,   14.9,   14.9,   15.9,   16.4,   15.8,   14.4,   12.6,    9.9,   11.4,   13.1,   15.8,   14.4,   13.6,   14.0,   11.9,   15.2,   18.8,  999.0,   23.4,  999.0,   25.9,   29.7,  999.0,  999.0,  999.0,  999.0,  999.0,  999.0,  999.0,  999.0,  999.0,  999.0,  999.0,  999.0,  999.0,  999.0,  999.0,  999.0
2000/04/21 22:40,    7.4,   13.3,   16.3,   15.0,   13.1,   10.8,   12.3,   15.1,   17.5,   17.0,   16.3,   16.5,   17.8,   18.6,   15.6,   14.7,   13.8,   15.0,   14.4,   14.2,   11.9,   13.9,   15.0,   14.9,   13.4,   18.4,   19.5,   21.1,   20.3,  999.0,  999.0,  999.0,  999.0,  999.0,  999.0,  999.0,  999.0,  999.0,  999.0,  999.0,  999.0,  999.0,  999.0,  999.0,  999.0,  999.0
2000/04/21 22:50,    5.5,   12.1,   14.1,   12.2,   15.4,   15.7,   19.0,   17.7,   17.5,   19.3,   18.2,   16.8,   17.6,   18.6,   17.9,   16.5,   15.8,   14.7,   14.8,   14.2,   13.7,   13.5,   14.8,   17.7,  999.0,   18.3,   20.3,  999.0,  999.0,  999.0,  999.0,  999.0,  999.0,  999.0,  999.0,  999.0,  999.0,  999.0,  999.0,  999.0,  999.0,  999.0,  999.0,  999.0,  999.0,  999.0
2000/04/21 23:00,    5.6,    9.7,   12.6,   14.1,   15.5,   15.8,   16.7,   17.8,   18.8,   20.7,   20.8,   20.0,   18.7,   16.3,   15.9,   16.5,   15.8,   15.6,   15.9,   15.5,   15.7,   16.1,   16.8,   16.8,   20.2,   21.3,   22.0,  999.0,  999.0,  999.0,  999.0,  999.0,  999.0,  999.0,  999.0,  999.0,  999.0,  999.0,  999.0,  999.0,  999.0,  999.0,  999.0,  999.0,  999.0,  999.0
2000/04/21 23:10,    5.7,    8.7,   13.1,   14.3,   14.4,   15.1,   17.0,   18.2,   19.7,   21.4,   22.1,   19.7,   17.4,   14.8,   15.6,   15.6,   14.1,   12.0,   12.9,   13.1,   15.9,   14.8,   15.1,   14.6,   17.0,   15.7,   17.9,   19.7,  999.0,  999.0,  999.0,  999.0,  999.0,  999.0,  999.0,  999.0,  999.0,  999.0,  999.0,  999.0,  999.0,  999.0,  999.0,  999.0,  999.0,  999.0
2000/04/21 23:20,  999.0,    9.6,   14.3,   15.1,   16.0,   15.3,   15.9,   17.5,   19.2,   20.6,   21.5,   21.2,   19.8,   19.0,   15.9,   13.3,   14.5,   16.5,  999.0,   17.8,   18.2,   17.5,   15.7,   14.7,   15.8,   16.6,   17.7,  999.0,  999.0,  999.0,  999.0,  999.0,  999.0,  999.0,  999.0,  999.0,  999.0,  999.0,  999.0,  999.0,  999.0,  999.0,  999.0,  999.0,  999.0,  999.0
2000/04/21 23:30,    6.0,  999.0,   11.9,   14.8,  999.0,  999.0,  999.0,   16.7,   18.6,   18.6,   19.1,   18.8,   18.7,   17.7,   17.6,   14.4,   14.9,   15.6,  999.0,  999.0,  999.0,  999.0,   14.8,  999.0,  999.0,  999.0,  999.0,  999.0,  999.0,  999.0,  999.0,  999.0,  999.0,  999.0,  999.0,  999.0,  999.0,  999.0,  999.0,  999.0,  999.0,  999.0,  999.0,  999.0,  999.0,  999.0
2000/04/21 23:40,  999.0,    8.1,   10.0,   11.9,   14.9,  999.0,  999.0,   16.2,   16.6,   17.2,   18.3,   18.1,   17.7,   18.1,   18.2,   16.7,   18.2,  999.0,  999.0,  999.0,  999.0,  999.0,  999.0,  999.0,  999.0,  999.0,  999.0,  999.0,  999.0,  999.0,  999.0,  999.0,  999.0,  999.0,  999.0,  999.0,  999.0,  999.0,  999.0,  999.0,  999.0,  999.0,  999.0,  999.0,  999.0,  999.0
2000/04/21 23:50,    5.8,    8.3,    9.6,   10.2,  999.0,   15.5,  999.0,   16.3,   16.3,   16.9,   18.6,   19.2,   18.9,   18.7,   18.8,   19.0,  999.0,  999.0,  999.0,  999.0,  999.0,  999.0,  999.0,  999.0,  999.0,  999.0,  999.0,  999.0,  999.0,  999.0,  999.0,  999.0,  999.0,  999.0,  999.0,  999.0,  999.0,  999.0,  999.0,  999.0,  999.0,  999.0,  999.0,  999.0,  999.0,  999.0
